Location: Ciserano
(45.5833°N, 9.6000°E)
Time: 01:46:39
(UTC+00:00)

SJ 16-02 - Pass Details

Date: 17 April 2021
Orbit: 605 x 617 km, 75.0° (Epoch: 10 May)

Event Time Altitude Azimuth Distance (km) Brightness Sun altitude
Exits shadow 01:03:43 31° 75° (ENE) 1,077 2.9 -29.4°
Drops below altitude 10° 01:06:48 10° 37° (NE) 1,985 4.9 -29.1°
Sets 01:09:12 0° 28° (NNE) 2,896 6.0 -28.9°
